Morrisville, VT

8:52 AM EST on December 15, 2019 (GMT -0500)
Morrisville Stowe State

Weather History for KMVL - August, 2019

Change the Weather History Date:

Sunday, August 4, 2019

  Actual Average Record
Temperature  
Mean Temperature 61 °F 67 °F  
Max Temperature 74 °F 79 °F 92 °F (2012)
Min Temperature 48 °F 55 °F 46 °F (1997)
Degree Days  
Heating Degree Days 4 1  
Month to date heating degree days 4 4  
Since 1 June heating degree days 157 157  
Since 1 July heating degree days 14 34  
Cooling Degree Days 0 3  
Month to date cooling degree days 1 12  
Year to date cooling degree days 183 180  
Since 1 June cooling degree days 182 172  
Growing Degree Days 12 (Base 50)    
Moisture  
Dew Point 54 °F    
Average Humidity 69    
Maximum Humidity 100    
Minimum Humidity 38    
Precipitation  
Precipitation 0.00 in 0.16 in 1.18 in (2010)
Month to date precipitation T 0.61  
Year to date precipitation 23.44 20.34  
Sea Level Pressure  
Sea Level Pressure 29.96 in    
Wind  
Wind Speed 5 mph (North)    
Max Wind Speed 17 mph    
Max Gust Speed 22 mph    
Visibility 9 miles    
Events      
T = Trace of Precipitation, MM = Missing Value Source: NWS Daily Summary

Daily Weather History Graph

Daily Weather History Graph

Search for Another Location

Airport or City:

Astronomy

Aug. 04, 2019 Rise Set
Actual Time 5:40 AM EDT 8:12 PM EDT
Civil Twilight 5:07 AM EDT 8:45 PM EDT
Nautical Twilight 4:25 AM EDT 9:26 PM EDT
Astronomical Twilight 3:38 AM EDT 10:12 PM EDT
Moon 9:50 AM EDT (8/4) 10:39 PM EDT (8/4)
Length of Visible Light 15h 37m
Length of Day
14h 31m
Waxing Crescent, 18% of the Moon is Illuminated
Aug 4
Waxing Crescent
Aug 7
First Quarter
Aug 15
Full
Aug 23
Last Quarter
Aug 30
New

Hourly Weather History & Observations

Time (EDT) Temp. Dew Point Humidity Pressure Visibility Wind Dir Wind Speed Gust Speed Precip Events Conditions
12:54 AM 64.0 °F 61.0 °F 90% 29.93 in 10.0 mi Calm Calm - N/A   Mostly Cloudy
1:54 AM 62.1 °F 60.1 °F 93% 29.93 in 10.0 mi SW 3.5 mph - N/A   Partly Cloudy
2:54 AM 62.1 °F 60.1 °F 93% 29.93 in 10.0 mi Calm Calm - N/A   Mostly Cloudy
3:54 AM 60.1 °F 59.0 °F 96% 29.94 in 10.0 mi Calm Calm - N/A   Scattered Clouds
4:54 AM 59.0 °F 57.0 °F 93% 29.93 in 10.0 mi Calm Calm - N/A   Clear
5:23 AM 57.9 °F 57.0 °F 97% 29.93 in 8.0 mi Calm Calm - N/A   Mostly Cloudy
5:34 AM 60.1 °F 57.9 °F 93% 29.94 in 10.0 mi Calm Calm - N/A   Overcast
5:54 AM 60.1 °F 57.9 °F 93% 29.94 in 4.0 mi Variable 3.5 mph - N/A   Overcast
5:57 AM 60.1 °F 59.0 °F 96% 29.94 in 1.5 mi Calm Calm - N/A   Overcast
5:59 AM 60.1 °F 59.0 °F 96% 29.94 in 0.8 mi Calm Calm - N/A   Overcast
6:47 AM 61.0 °F 60.1 °F 97% 29.96 in 2.5 mi Calm Calm - N/A   Mostly Cloudy
6:54 AM 61.0 °F 60.1 °F 97% 29.96 in 6.0 mi NNE 3.5 mph - N/A   Mostly Cloudy
7:01 AM 60.1 °F 59.0 °F 96% 29.96 in 10.0 mi North 4.6 mph - N/A   Mostly Cloudy
7:09 AM 60.1 °F 59.0 °F 96% 29.96 in 10.0 mi North 3.5 mph - N/A   Partly Cloudy
7:54 AM 64.0 °F 57.9 °F 80% 29.97 in 10.0 mi NNE 6.9 mph - N/A   Clear
8:12 AM 63.0 °F 57.0 °F 81% 29.98 in 10.0 mi NNE 6.9 mph - N/A   Mostly Cloudy
8:54 AM 64.9 °F 55.9 °F 73% 29.98 in 10.0 mi North 4.6 mph - N/A   Partly Cloudy
9:54 AM 66.9 °F 55.9 °F 68% 29.98 in 10.0 mi NNE 5.8 mph - N/A   Clear
10:54 AM 70.0 °F 48.9 °F 47% 29.99 in 10.0 mi North 9.2 mph - N/A   Clear
11:54 AM 71.1 °F 51.1 °F 49% 29.99 in 10.0 mi NNE 13.8 mph - N/A   Clear
12:54 PM 72.0 °F 50.0 °F 46% 29.98 in 10.0 mi North 10.4 mph 21.9 mph N/A   Scattered Clouds
1:54 PM 72.0 °F 50.0 °F 46% 29.96 in 10.0 mi North 9.2 mph - N/A   Clear
2:54 PM 72.0 °F 50.0 °F 46% 29.96 in 10.0 mi NNE 8.1 mph - N/A   Clear
3:54 PM 72.0 °F 48.0 °F 43% 29.96 in 10.0 mi North 10.4 mph - N/A   Clear
4:54 PM 72.0 °F 48.0 °F 43% 29.96 in 10.0 mi North 9.2 mph 16.1 mph N/A   Clear
5:54 PM 71.1 °F 45.0 °F 39% 29.96 in 10.0 mi North 10.4 mph - N/A   Clear
6:54 PM 69.1 °F 46.9 °F 45% 29.97 in 10.0 mi Calm Calm - N/A   Clear
7:54 PM 60.1 °F 50.0 °F 69% 29.98 in 10.0 mi South 3.5 mph - N/A   Clear
8:54 PM 55.0 °F 50.0 °F 83% 29.99 in 10.0 mi South 3.5 mph - N/A   Clear
9:54 PM 52.0 °F 48.9 °F 89% 30.00 in 10.0 mi SSW 3.5 mph - N/A   Clear
10:54 PM 51.1 °F 48.9 °F 92% 30.00 in 10.0 mi SSW 3.5 mph - N/A   Clear
11:54 PM 50.0 °F 48.0 °F 93% 30.01 in 10.0 mi Calm Calm - N/A   Clear